Regional Weather Roundup
Issued by NWS

Home | Current Version | Previous Version | Graphics & Text | Print | Product List | Glossary On
Versions: 1 2 3 4 5 6 7 8 9 10 11 12 13 14 15 16 17 18 19 20 21 22 23 24 25 26 27 28 29 30 31 32 33 34 35 36 37 38 39 40 41 42 43 44 45 46 47 48 49 50
000
ASUS45 KBOU 151607
RWRCO

WEATHER ROUNDUP FOR COLORADO
NATIONAL WEATHER SERVICE DENVER/BOULDER CO
1000 AM MDT MON SEP 15 2014

NOTE: "FAIR" INDICATES FEW OR NO CLOUDS BELOW 12000 FEET WITH NO
SIGNIFICANT WEATHER AND/OR OBSTRUCTIONS TO VISIBILITY.

COZ001>005-013-030-031-151700-
...NORTHWEST COLORADO...

CITY           SKY/WX    TMP DP  RH WIND       PRES   REMARKS
CRAIG          SUNNY     64  43  46 VRB3      30.31F
HAYDEN         SUNNY     61  37  41 SE10      30.33S
MEEKER         SUNNY     61  40  45 S5        30.32S
MOUNT WERNER   NOT AVBL
STEAMBOAT SPGS SUNNY     55  38  52 CALM      30.35S
WALDEN         SUNNY     54  34  47 CALM      30.43S
$$

COZ006>008-011-151700-
...WEST CENTRAL VALLEYS...

CITY           SKY/WX    TMP DP  RH WIND       PRES   REMARKS
GRAND JUNCTION SUNNY     68  42  38 SE15      30.21S
MONTROSE       SUNNY     68  43  40 CALM      30.30S
EAGLE          MOSUNNY   54  39  58 CALM      30.40F
RIFLE          SUNNY     62  41  46 E3        30.29S
DELTA          SUNNY     67  41  39 E7        30.27S HAZE
NUCLA          SUNNY     68  41  37 CALM      30.32S
$$

COZ017>023-064>068-151700-
...SOUTHWEST COLORADO...

CITY           SKY/WX    TMP DP  RH WIND       PRES   REMARKS
DURANGO        SUNNY     67  46  47 N3        30.34S
CORTEZ         SUNNY     68  44  42 E3        30.29S
PAGOSA SPRINGS SUNNY     66  43  43 CALM      30.40
TELLURIDE      NOT AVBL
WOLF CREEK PAS SUNNY     50  34  53 NE12      30.68R
$$

COZ009-010-012-014-032>034-037-058>063-151700-
...CENTRAL COLORADO...

CITY           SKY/WX    TMP DP  RH WIND       PRES   REMARKS
ASPEN          SUNNY     61  37  41 NW5       30.40F
BUENA VISTA    SUNNY     62  32  32 NW3       30.45S
COPPER MTN     SUNNY     54  27  35 SW6       30.69R
BERTHOUD PASS  FAIR      43  41  93 MISG      30.72R
COTTONWOOD PAS SUNNY     59  32  36 CALM      30.56R
GUNNISON       SUNNY     54  36  50 CALM      30.48S
KREMMLING      SUNNY     54  36  50 CALM      30.44F
LEADVILLE      SUNNY     54  32  43 S3        30.54S
MONARCH PASS   SUNNY     52  28  40 E6        30.79R
SALIDA         SUNNY     61  34  36 CALM      30.49F
SUNLIGHT       SUNNY     57  34  41 CALM      30.61S
WILKERSON PASS NOT AVBL
$$

COZ069>075-151700-
...SAN LUIS VALLEY/SANGRE DE CRISTO MOUNTAINS...

CITY           SKY/WX    TMP DP  RH WIND       PRES   REMARKS
ALAMOSA        SUNNY     63  47  55 N6        30.41S
LA VETA PASS   NOT AVBL
SAGUACHE       NOT AVBL
$$

COZ035-036-038>040-151700-
...NORTHERN COLORADO FRONT RANGE...

CITY           SKY/WX    TMP DP  RH WIND       PRES   REMARKS
DENVER INTL AP MOSUNNY   57  43  59 CALM      30.37R
DMNS CITY PARK   N/A     62  42  48 E1G12     30.37S
AURORA         MOSUNNY   56  46  69 VRB3      30.38S
FRONT RANGE AP PTSUNNY   55  48  76 CALM      30.38R
ERIE MUNI ARPT SUNNY     59  46  62 CALM      30.36S
BOULDER MUN AP SUNNY     59  46  63 SE5       30.35F
CENTENNIAL     MOSUNNY   57  41  55 N7        30.38R
BROOMFIELD     MOSUNNY   57  46  67 CALM      30.38R
FORT COLLINS   SUNNY     54  45  71 CALM      30.37F
LONGMONT       SUNNY     61  46  58 CALM      30.37F
$$

COZ041-046-047-076>085-087-088-151700-
...PIKES PEAK/PALMER DIVIDE AND SOUTHERN FOOTHILLS...

CITY           SKY/WX    TMP DP  RH WIND       PRES   REMARKS
COLO. SPRINGS  MOSUNNY   67  38  34 NW10      30.35R
A. F. ACADEMY  SUNNY     61  39  44 N18       30.36R
ELLICOTT       NOT AVBL
FALCON         SUNNY     62  39  43 N18G24    30.36S
FORT CARSON    SUNNY     67  43  42 W2        30.34R
LIMON          CLOUDY    50  49  96 NW13      30.36R
MONUMENT HILL  SUNNY     54  37  54 NW13      30.40R
TRINIDAD       PTSUNNY   57  48  72 NE12      30.38R
$$

COZ042>045-048>051-090-091-151700-
...NORTHEAST COLORADO...

CITY           SKY/WX    TMP DP  RH WIND       PRES   REMARKS
GREELEY ARPT   SUNNY     55  43  62 E6        30.36
AKRON          CLOUDY    51  48  89 N12       30.34R
BURLINGTON     CLOUDY    51  50  96 N10       30.32R FOG
WRAY           MOSUNNY   58  49  71 N17G24    30.32R
STERLING       PTSUNNY   55  48  76 N3        30.34S
HOLYOKE        MOSUNNY   59  46  63 N9        30.34R
FORT MORGAN    MOSUNNY   55  46  69 N7        30.36S
$$

COZ086-089-092>099-151700-
...SOUTHEAST COLORADO...

CITY           SKY/WX    TMP DP  RH WIND       PRES   REMARKS
PUEBLO         SUNNY     65  48  54 SE8       30.32R
LA JUNTA       CLOUDY    61  53  75 NE13      30.32R
LAMAR          CLOUDY    60  55  83 NE13      30.27R
SPRINGFIELD      N/A     57  56  96 N22G28    30.26R
$$


USA.gov is the U.S. government's official web portal to all federal, state and local government web resources and services.